Temp
6 7 6 6 5 5 5 5 5 5 5 5 5 5 5 5 5 6 6 6 6 6 6 6 6 6 7 6 7 7 7 7 6 7 6 5 5 5 5 5 4 3 2
5 6 6 6 6 5 5 5 5 5 5 5 5 5 5 5 5 6 6 6 6 6 6 6 6 6 6 6 6 6 6 6 6 6 6 5 5 5 5 4 3 3 3
5 6 6 6 5 5 5 5 5 5 5 5 5 5 5 5 5 5 6 6 6 6 6 6 6 6 6 6 6 5 6 6 6 5 5 5 5 4 5 4 4 3 2
5 6 5 5 5 5 5 5 5 5 5 5 5 5 5 5 5 5 5 6 6 6 6 6 5 5 5 5 5 5 5 5 5 5 5 5 4 4 4 4 3 3 3
5 5 5 5 5 5 5 5 5 5 5 5 5 5 5 5 5 5 5 5 6 5 5 5 5 5 5 5 5 5 4 4 4 4 4 4 4 4 4 4 4 3 2
5 5 5 5 5 5 5 5 5 5 5 5 5 4 4 5 5 4 5 5 5 5 5 5 5 4 4 4 4 4 4 4 4 4 4 4 4 4 4 4 4 3 2
4 5 4 4 5 5 5 5 5 5 5 5 5 5 4 4 4 4 4 5 4 4 4 4 4 4 4 4 4 3 3 4 4 3 4 3 3 4 4 4 3 3 2
4 4 4 4 4 5 5 5 5 5 5 4 4 5 4 4 4 3 4 4 3 4 4 4 4 4 3 3 3 3 3 3 3 3 3 3 3 3 3 3 3 3 3
2 3 3 4 4 4 4 4 4 4 4 4 4 3 3 3 3 3 3 3 3 3 3 3 3 3 3 2 2 2 3 3 3 2 3 2 2 2 2 2 3 3 2
2 1 1 2 2 3 3 3 3 3 3 3 3 2 2 2 2 3 3 2 2 3 2 2 2 2 2 2 2 1 3 3 2 2 3 2 2 2 2 2 2 2 2
2 1 1 2 2 2 2 2 2 2 2 2 2 2 2 2 2 2 2 2 2 2 2 2 2 1 1 2 1 2 2 2 2 2 2 2 2 2 2 2 2 1 1
1 1 1 2 1 2 2 2 2 2 3 3 3 3 2 2 2 2 1 2 2 2 1 0 1 1 1 1 1 1 2 2 2 2 2 2 1 2 2 1 0 -0 -1
1 2 1 1 1 1 1 1 1 2 3 2 3 3 3 2 2 2 2 1 2 0 0 1 1 1 1 1 1 1 1 1 1 1 1 1 1 1 1 0 0 0 0
1 1 2 2 1 1 1 1 1 1 2 1 1 1 2 1 2 1 1 1 0 1 1 0 1 -0 1 0 0 1 1 1 1 1 1 1 1 1 0 0 -0 -0 0
1 1 1 2 1 1 1 2 1 1 1 1 1 1 1 1 1 1 1 2 1 1 0 0 -0 -0 0 0 1 1 1 1 1 1 1 1 1 1 0 0 0 -0 1
1 1 1 1 1 1 1 1 2 2 1 1 2 2 2 1 1 1 1 1 1 1 0 -0 -0 -0 0 0 1 1 0 0 0 0 0 0 0 -0 0 -0 -0 -1 -1
1 1 1 1 1 1 1 1 1 1 1 1 1 2 1 1 1 1 1 1 0 0 0 -0 -0 -0 0 0 0 0 1 0 1 1 1 0 1 0 1 -0 -1 -0 -1
1 2 1 1 2 2 1 1 1 2 2 2 2 1 0 1 0 0 0 0 -0 -0 -0 -1 -1 -1 -0 -0 -0 -0 0 0 0 0 0 0 0 -0 0 -0 -1 -1 -2
1 1 1 1 1 1 1 2 2 2 1 1 1 0 1 1 0 0 -0 -0 -0 -1 -1 -1 -1 -1 -0 0 0 0 0 0 1 1 0 0 0 0 -0 -1 -1 -1 -2
1 1 1 1 1 1 1 1 1 2 2 1 1 1 0 0 -0 -1 -0 -0 -1 -1 -1 -1 -0 -0 0 0 0 0 0 1 0 0 -0 -0 -0 -0 -1 -1 -2 -2 -3
0 0 0 1 1 1 1 1 1 1 1 1 0 -0 0 -1 -1 -1 -1 -1 -1 -1 -1 -1 -0 -0 -0 0 0 0 0 1 0 1 1 -0 -1 -1 -2 -2 -3 -3 -3
-0 -0 -0 -0 -0 -0 -0 0 0 1 -0 -1 -1 -0 -1 -0 -0 -1 -1 -1 -1 -1 -1 -1 -1 -1 -1 -0 0 0 0 1 1 1 0 -0 -1 -2 -2 -3 -3 -3 -3
-2 -1 -1 -1 -1 -1 -1 -1 -1 -1 -0 -0 -1 -2 -1 -1 -1 -1 -1 -1 -1 -2 -2 -1 -1 -1 -1 -1 -1 -0 0 0 0 -0 -1 -1 -2 -3 -3 -3 -3 -3 -3
-3 -3 -2 -2 -2 -2 -1 -2 -2 -2 -1 -1 -1 -2 -2 -2 -2 -2 -2 -2 -2 -2 -2 -2 -2 -2 -1 -1 -1 -1 -1 -0 -1 -1 -2 -2 -3 -3 -3 -3 -3 -3 -3
-4 -4 -4 -4 -3 -3 -2 -2 -2 -2 -2 -2 -2 -2 -2 -3 -3 -3 -3 -2 -2 -2 -2 -2 -2 -2 -2 -1 -1 -1 -1 -1 -1 -1 -2 -2 -3 -3 -3 -3 -3 -3 -3
-5 -5 -5 -5 -4 -4 -4 -3 -3 -3 -3 -3 -3 -3 -3 -3 -3 -3 -3 -3 -3 -3 -3 -3 -2 -2 -2 -2 -2 -1 -1 -2 -1 -2 -2 -3 -3 -3 -3 -3 -3 -3 -3
Height
3138 3140 3144 3147 3151 3153 3157 3159 3161 3162 3164 3165 3166 3167 3167 3168 3167 3168 3168 3168 3168 3168 3168 3167 3167 3166 3165 3164 3162 3160 3159 3158 3156 3155 3153 3151 3149 3147 3146 3143 3142 3140 3139
3134 3137 3140 3144 3147 3150 3154 3157 3159 3160 3161 3162 3163 3164 3164 3165 3165 3165 3165 3166 3167 3166 3166 3166 3165 3164 3163 3161 3160 3159 3158 3157 3155 3153 3150 3149 3146 3144 3143 3140 3139 3137 3136
3129 3133 3137 3140 3144 3147 3151 3153 3155 3157 3158 3159 3160 3161 3162 3162 3162 3162 3162 3163 3163 3163 3164 3163 3162 3162 3161 3160 3159 3157 3156 3154 3153 3150 3147 3146 3143 3142 3140 3137 3136 3135 3135
3124 3129 3132 3137 3140 3143 3146 3149 3150 3152 3154 3155 3156 3158 3158 3159 3159 3159 3159 3159 3160 3160 3160 3160 3160 3159 3158 3157 3156 3154 3152 3150 3148 3146 3143 3141 3139 3138 3137 3134 3133 3131 3131
3117 3123 3128 3132 3135 3138 3142 3144 3146 3148 3149 3151 3151 3153 3155 3154 3155 3155 3155 3156 3156 3156 3156 3156 3156 3155 3154 3153 3152 3150 3148 3147 3145 3142 3139 3138 3137 3134 3132 3130 3129 3128 3127
3112 3117 3122 3126 3129 3133 3137 3140 3142 3143 3145 3146 3147 3148 3149 3150 3151 3151 3152 3151 3152 3152 3152 3152 3151 3150 3150 3149 3147 3146 3144 3142 3140 3138 3136 3134 3132 3130 3128 3127 3125 3123 3122
3107 3112 3117 3120 3125 3128 3132 3134 3136 3138 3140 3141 3142 3144 3144 3145 3145 3147 3147 3147 3148 3148 3147 3148 3147 3147 3145 3144 3143 3141 3140 3138 3136 3134 3131 3129 3127 3125 3123 3122 3120 3119 3119
3104 3108 3113 3116 3120 3123 3127 3129 3131 3132 3134 3134 3137 3137 3138 3139 3140 3141 3141 3142 3143 3143 3141 3142 3143 3142 3141 3139 3138 3137 3135 3133 3131 3128 3126 3123 3121 3120 3118 3116 3115 3114 3113
3098 3103 3107 3110 3114 3118 3120 3121 3123 3125 3127 3129 3131 3131 3131 3133 3134 3134 3134 3136 3136 3136 3136 3135 3136 3135 3135 3133 3132 3132 3129 3126 3124 3123 3121 3119 3116 3114 3112 3112 3111 3110 3108
3086 3091 3098 3105 3107 3111 3113 3115 3116 3116 3118 3121 3122 3124 3125 3127 3126 3127 3126 3127 3129 3129 3129 3128 3128 3128 3128 3127 3125 3124 3122 3120 3118 3116 3115 3113 3110 3108 3107 3106 3105 3103 3102
3083 3087 3093 3096 3099 3099 3102 3106 3107 3109 3112 3114 3116 3117 3118 3118 3119 3119 3118 3117 3119 3119 3122 3122 3122 3120 3120 3120 3119 3117 3115 3113 3112 3111 3110 3107 3104 3103 3102 3101 3100 3099 3097
3077 3081 3085 3090 3092 3094 3098 3100 3101 3103 3104 3104 3105 3107 3108 3110 3110 3110 3110 3114 3113 3111 3112 3114 3115 3114 3114 3113 3112 3110 3109 3108 3106 3104 3103 3101 3100 3098 3095 3093 3092 3092 3093
3078 3074 3080 3082 3084 3085 3089 3091 3093 3095 3094 3092 3093 3095 3097 3099 3098 3098 3099 3103 3104 3106 3105 3107 3108 3108 3108 3107 3106 3104 3102 3101 3099 3099 3096 3095 3093 3091 3090 3089 3087 3085 3086
3074 3073 3073 3074 3076 3079 3079 3084 3082 3085 3086 3081 3080 3081 3086 3087 3086 3086 3086 3092 3095 3098 3097 3099 3099 3100 3102 3101 3100 3098 3097 3096 3093 3091 3089 3088 3087 3086 3084 3083 3082 3080 3079
3066 3068 3070 3072 3074 3076 3076 3078 3076 3080 3079 3077 3077 3077 3079 3080 3080 3080 3082 3085 3088 3090 3092 3092 3093 3095 3095 3093 3093 3092 3090 3089 3087 3085 3083 3081 3080 3078 3076 3075 3075 3074 3073
3062 3065 3066 3067 3067 3069 3070 3071 3072 3073 3071 3071 3073 3072 3073 3074 3076 3077 3078 3079 3081 3082 3084 3085 3085 3087 3088 3087 3085 3083 3083 3082 3080 3078 3077 3075 3073 3072 3069 3068 3067 3067 3067
3059 3061 3061 3064 3065 3065 3066 3065 3064 3064 3065 3065 3065 3065 3067 3067 3070 3071 3073 3073 3075 3077 3077 3079 3078 3078 3078 3079 3078 3078 3076 3076 3074 3071 3068 3067 3065 3064 3062 3062 3061 3060 3061
3053 3054 3055 3056 3056 3058 3059 3058 3057 3056 3056 3057 3058 3059 3061 3061 3062 3062 3065 3068 3069 3071 3071 3073 3072 3072 3070 3070 3070 3069 3068 3067 3065 3063 3061 3060 3059 3058 3056 3055 3054 3054 3054
3047 3048 3048 3047 3048 3048 3050 3049 3048 3047 3048 3049 3050 3051 3052 3054 3055 3057 3060 3061 3063 3065 3064 3065 3066 3066 3064 3062 3062 3061 3060 3060 3058 3056 3054 3052 3050 3049 3048 3047 3046 3047 3049
3040 3040 3039 3041 3040 3040 3040 3039 3039 3039 3040 3040 3042 3044 3045 3046 3048 3051 3052 3053 3054 3055 3055 3055 3055 3057 3057 3056 3055 3055 3053 3051 3049 3047 3045 3044 3042 3040 3040 3042 3040 3040 3040
3031 3030 3031 3031 3031 3030 3029 3029 3028 3029 3030 3032 3034 3034 3036 3038 3040 3042 3042 3045 3044 3046 3046 3046 3046 3046 3047 3048 3048 3047 3045 3043 3041 3039 3036 3035 3034 3035 3034 3036 3034 3032 3033
3021 3021 3022 3020 3020 3020 3019 3018 3017 3018 3021 3023 3023 3024 3026 3026 3030 3034 3034 3035 3037 3036 3038 3038 3039 3038 3039 3039 3037 3037 3037 3035 3033 3031 3029 3029 3028 3028 3028 3029 3030 3027 3027
3013 3013 3011 3010 3010 3009 3007 3009 3007 3008 3009 3010 3011 3014 3018 3017 3018 3024 3026 3027 3027 3027 3027 3027 3030 3031 3030 3030 3031 3030 3028 3028 3026 3025 3025 3024 3025 3024 3022 3021 3025 3025 3027
3005 3003 3000 3000 2998 2998 2997 2997 2997 2996 2998 3000 3000 3002 3004 3006 3008 3012 3013 3016 3016 3016 3019 3018 3020 3024 3021 3021 3020 3022 3020 3020 3021 3020 3019 3018 3019 3021 3019 3020 3021 3023 3024
2993 2995 2992 2989 2986 2987 2985 2985 2984 2985 2986 2987 2989 2991 2993 2994 2996 2998 3002 3005 3004 3007 3007 3008 3010 3013 3015 3013 3013 3012 3013 3014 3013 3015 3014 3014 3016 3020 3018 3017 3018 3020 3021
2982 2980 2978 2976 2976 2974 2973 2973 2973 2972 2973 2973 2977 2980 2980 2983 2984 2988 2991 2992 2993 2996 2997 2999 3004 3002 3005 3006 3005 3004 3006 3007 3006 3007 3009 3010 3013 3015 3016 3014 3014 3017 3019
Wind_Speed
34 31 32 31 28 25 23 20 16 13 12 11 10 11 10 10 9 8 8 6 6 7 6 7 8 10 12 13 14 15 16 18 18 18 17 17 17 16 16 14 14 12 12
34 32 33 32 29 27 24 21 18 16 14 13 12 12 11 10 11 10 9 8 7 8 7 7 8 10 11 12 13 15 16 17 17 18 18 17 15 16 16 15 14 14 13
35 34 35 34 30 27 26 23 20 18 16 15 14 14 14 13 12 12 12 10 9 9 9 8 9 10 11 13 14 15 17 18 18 18 18 17 16 16 17 16 17 15 15
37 36 37 34 32 30 28 25 22 19 17 16 16 16 15 16 16 15 14 13 12 10 11 11 10 11 12 12 15 16 18 18 17 18 17 18 18 17 18 17 17 16 15
38 39 38 36 35 32 29 26 23 21 19 17 17 16 18 18 19 19 18 17 16 15 14 14 14 13 15 16 16 17 18 18 18 19 19 19 20 20 19 18 17 17 15
37 38 38 38 36 33 30 27 25 23 21 19 19 17 18 21 24 22 21 22 19 18 18 18 18 17 16 17 18 19 20 20 20 22 21 21 21 22 22 21 20 18 17
36 37 37 37 35 33 30 28 26 24 22 22 22 23 24 24 25 25 27 27 23 22 22 21 21 20 21 20 21 21 22 23 23 24 24 23 23 24 23 22 21 19 17
32 33 34 34 33 32 30 29 28 27 24 23 24 26 26 27 27 25 28 27 26 26 27 25 23 22 19 20 22 24 25 25 26 26 25 25 25 25 24 23 22 20 19
33 32 32 31 32 31 29 28 31 28 25 25 26 25 26 26 25 26 30 29 28 27 27 28 27 26 24 24 26 29 31 30 29 26 25 25 25 26 26 25 23 22 19
32 39 30 31 31 29 24 26 29 33 32 23 26 29 35 35 30 27 30 37 36 33 31 30 28 29 30 34 36 36 31 28 26 24 26 21 23 24 24 24 24 22 22
28 32 37 29 31 28 32 31 34 37 37 46 47 39 42 39 37 40 41 39 39 36 34 32 31 35 30 29 24 25 24 23 23 25 24 20 21 22 23 23 24 23 24
34 33 34 36 35 37 43 46 36 36 39 55 52 55 59 52 46 48 47 41 40 37 35 36 33 26 18 20 23 24 23 24 24 25 24 22 22 24 23 22 24 22 22
13 40 49 39 39 38 47 39 39 40 44 46 53 57 60 47 48 47 56 41 38 33 36 20 23 23 21 21 24 24 24 25 24 25 24 23 24 23 23 24 21 21 23
12 11 15 12 14 15 14 21 16 23 26 20 27 37 47 38 27 26 34 36 24 18 17 25 29 24 20 23 25 24 24 24 24 25 25 26 25 25 26 25 22 22 22
13 16 16 16 19 20 22 24 22 29 24 20 18 16 22 16 18 14 16 18 18 20 24 27 22 21 24 26 26 24 25 25 25 26 26 27 26 26 27 27 27 24 21
14 19 21 22 22 23 26 27 27 29 23 23 23 22 26 18 23 20 24 23 26 28 25 22 22 24 25 26 27 26 26 26 26 26 26 26 27 28 27 27 26 24 22
19 21 23 25 26 26 27 29 28 27 26 26 25 23 24 27 27 26 29 27 26 25 22 23 25 27 28 27 26 26 26 26 26 26 26 27 27 27 26 25 24 22 21
19 22 24 25 26 28 29 30 31 29 28 28 27 28 24 28 24 23 23 23 22 24 24 25 28 29 28 27 27 27 27 28 28 30 30 29 29 28 27 25 23 23 22
25 26 27 27 27 27 27 25 26 28 31 31 32 25 31 26 24 23 22 22 23 25 25 27 29 29 29 28 28 28 28 29 30 30 31 31 30 29 27 24 23 24 21
30 31 31 31 33 34 33 31 30 28 28 29 35 30 30 27 27 27 27 25 25 26 27 28 29 30 29 29 30 30 30 29 29 28 27 27 26 26 25 25 23 22 21
33 33 33 34 34 34 34 34 34 31 32 30 29 34 33 33 31 31 29 27 27 29 30 31 31 30 28 30 31 31 29 28 27 26 26 26 25 25 23 22 23 21 19
32 33 34 34 33 33 33 34 34 34 35 32 35 32 37 35 38 36 34 32 32 32 33 33 32 30 29 30 30 30 29 26 26 26 26 24 22 21 20 20 19 16 15
28 30 32 34 35 34 32 32 33 35 36 36 37 36 39 37 39 39 44 41 35 37 35 34 32 31 30 29 29 27 26 25 25 23 22 21 19 18 15 14 13 12 13
32 32 32 33 33 33 35 34 33 34 36 37 37 38 40 42 39 45 41 44 42 36 37 34 32 32 29 28 26 25 25 25 23 20 19 16 15 15 14 12 12 12 13
33 33 32 32 34 35 35 34 35 36 36 37 38 39 39 40 43 45 45 44 42 41 36 34 31 30 28 25 24 23 24 23 21 17 14 13 13 15 14 12 12 12 12
37 37 36 36 35 33 33 35 36 37 38 38 37 38 39 39 39 39 39 39 38 35 34 33 31 29 26 25 22 22 23 20 18 15 14 14 14 14 14 12 12 12 11
Wind_Direction
211 212 208 204 203 203 203 206 212 221 233 239 243 254 261 268 274 271 262 265 278 289 298 315 328 335 339 343 345 339 340 341 337 334 332 329 326 323 315 314 304 294 286
212 210 208 207 207 204 206 212 221 230 240 249 253 257 260 261 268 273 269 270 275 279 292 304 317 326 333 337 336 335 336 336 331 331 328 326 320 313 311 308 300 290 289
217 212 210 208 208 206 209 218 228 235 242 251 255 258 262 266 271 277 278 277 277 273 281 295 302 312 321 327 331 335 334 330 327 324 325 321 318 317 312 308 299 293 289
219 212 209 208 208 211 217 222 231 241 250 255 259 261 261 264 268 272 277 277 273 270 272 278 291 303 309 317 319 323 321 322 319 317 315 312 314 313 313 308 299 293 285
213 209 207 210 212 215 221 229 236 244 250 255 259 265 266 266 267 269 268 273 276 278 274 279 284 289 297 304 313 318 322 320 316 310 310 314 312 309 305 304 299 285 274
210 208 209 213 215 219 225 233 240 245 251 257 261 266 270 273 269 269 271 272 277 273 272 272 276 280 289 296 303 308 311 310 309 308 310 308 306 303 302 302 299 292 272
206 209 213 217 220 224 230 236 243 248 255 261 263 265 262 264 267 267 268 269 272 271 268 268 269 276 284 292 298 304 306 306 305 305 306 305 300 297 297 297 294 289 279
212 213 218 223 227 232 237 242 247 251 255 263 268 268 266 265 268 271 269 268 266 262 258 260 263 268 280 293 300 302 302 302 303 301 301 299 300 298 296 293 293 292 286
207 213 217 225 230 234 240 247 251 252 255 261 268 273 270 276 273 273 269 266 260 257 252 255 257 262 271 284 296 304 301 298 297 299 301 298 299 299 296 297 299 295 287
208 210 217 224 232 240 236 244 253 258 256 265 279 282 281 272 275 284 269 262 261 257 248 251 258 265 275 286 291 290 291 293 292 294 300 300 293 295 294 295 292 290 281
221 209 217 218 224 233 232 244 257 258 261 265 262 270 272 279 274 285 261 242 252 252 246 250 258 276 279 286 276 282 288 293 291 290 298 299 299 301 298 291 292 288 280
240 238 238 233 244 241 248 251 260 274 280 266 263 261 267 273 278 276 275 257 248 243 250 268 273 268 269 276 278 282 283 287 289 291 294 297 296 294 291 289 283 280 280
269 244 246 253 241 246 247 246 261 276 272 259 257 261 265 276 276 272 275 263 259 261 268 253 259 267 276 282 287 288 285 286 288 291 293 293 290 294 297 296 284 285 292
225 192 201 209 210 235 243 237 258 263 271 271 255 255 264 263 265 265 253 252 247 236 231 246 259 273 278 282 285 285 285 286 288 290 293 294 295 295 292 294 286 286 290
217 229 229 230 231 237 243 256 253 252 259 269 270 248 248 262 257 257 239 240 239 239 256 259 270 276 279 282 283 283 286 289 291 293 293 295 297 293 290 292 289 288 286
250 242 245 245 251 253 255 253 251 254 256 253 254 254 258 255 259 240 243 243 245 250 251 256 266 275 278 281 283 287 288 290 291 290 293 293 290 291 290 286 288 283 276
245 248 249 252 253 254 249 249 251 255 254 253 256 260 260 232 254 247 251 250 243 245 245 261 275 279 280 281 282 283 285 286 287 288 285 284 288 289 290 289 288 281 279
261 259 257 255 254 255 256 256 254 253 253 253 253 254 243 254 251 241 238 239 240 244 254 264 275 277 279 281 280 282 284 287 288 286 287 288 286 286 287 285 282 276 274
266 265 263 261 258 256 256 257 259 256 254 250 247 243 250 244 236 235 236 239 244 253 265 275 282 277 276 277 281 282 286 287 285 285 283 281 280 281 281 276 271 270 267
265 266 265 264 264 262 260 258 257 257 258 247 254 247 247 243 239 238 241 247 250 257 269 279 281 279 280 281 279 280 280 283 284 283 280 279 281 280 278 274 268 265 263
269 267 267 268 266 267 268 266 261 257 255 253 251 244 246 241 241 242 246 253 255 262 272 279 275 272 275 276 279 283 283 282 285 288 288 285 280 277 275 268 265 262 259
270 270 270 269 268 266 266 265 262 260 257 245 251 252 243 246 241 244 246 246 257 262 270 276 274 273 272 275 281 283 281 283 289 288 286 281 278 271 266 265 264 257 245
274 271 270 270 269 270 266 264 262 261 257 251 248 248 252 245 252 250 250 254 255 267 272 274 270 270 270 274 278 283 284 285 286 281 277 274 271 265 262 258 250 239 228
280 278 276 275 273 270 268 265 261 258 258 257 252 247 247 246 253 255 258 259 258 266 269 267 263 266 269 274 279 280 281 282 277 271 267 266 262 258 249 237 229 225 220
278 275 273 270 270 269 268 264 262 261 257 255 254 252 251 247 245 251 256 263 266 263 262 259 259 262 268 272 275 278 279 271 268 269 270 262 253 244 235 228 231 230 225
273 271 270 269 267 265 265 265 262 259 257 255 252 254 253 250 249 252 252 253 254 256 257 256 256 258 263 270 271 274 270 263 260 259 249 238 235 236 235 231 231 229 225